Time,TemperatureF,DewpointF,PressureIn,WindDirection,WindDirectionDegrees,WindSpeedMPH,WindSpeedGustMPH,Humidity,HourlyPrecipIn,Conditions,Clouds,dailyrainin,SoftwareType,DateUTC
2013-06-07 00:13:00,75.7,73.0,29.92,South,175,6.0,8.0,92,0.00,,,0.00,weatherlink.com 1.10,2013-06-07 04:13:00,
2013-06-07 00:28:00,75.7,73.0,29.91,SSE,167,8.0,10.0,92,0.00,,,0.00,weatherlink.com 1.10,2013-06-07 04:28:00,
2013-06-07 00:43:00,75.9,74.0,29.91,South,177,7.0,10.0,92,0.00,,,0.00,weatherlink.com 1.10,2013-06-07 04:43:00,
2013-06-07 00:58:00,76.0,74.0,29.90,SE,136,5.0,11.0,92,0.00,,,0.00,weatherlink.com 1.10,2013-06-07 04:58:00,
2013-06-07 01:13:00,76.0,74.0,29.90,South,178,10.0,12.0,92,0.00,,,0.00,weatherlink.com 1.10,2013-06-07 05:13:00,
2013-06-07 01:28:00,76.1,74.0,29.89,SE,134,12.0,13.0,92,0.01,,,0.01,weatherlink.com 1.10,2013-06-07 05:28:00,
2013-06-07 01:43:00,76.1,74.0,29.88,SE,141,10.0,14.0,92,0.01,,,0.01,weatherlink.com 1.10,2013-06-07 05:43:00,
2013-06-07 01:58:00,76.2,74.0,29.87,SE,146,11.0,13.0,92,0.01,,,0.01,weatherlink.com 1.10,2013-06-07 05:58:00,
2013-06-07 02:13:00,76.1,74.0,29.86,ESE,121,10.0,14.0,92,0.02,,,0.02,weatherlink.com 1.10,2013-06-07 06:13:00,
2013-06-07 02:28:00,76.1,74.0,29.85,SE,130,13.0,14.0,93,0.02,,,0.03,weatherlink.com 1.10,2013-06-07 06:28:00,
2013-06-07 02:44:00,76.1,74.0,29.84,ESE,117,11.0,15.0,93,0.03,,,0.04,weatherlink.com 1.10,2013-06-07 06:44:00,
2013-06-07 02:59:00,76.1,74.0,29.84,ESE,121,12.0,16.0,93,0.04,,,0.05,weatherlink.com 1.10,2013-06-07 06:59:00,
2013-06-07 03:14:00,76.2,74.0,29.83,SE,129,16.0,19.0,93,0.04,,,0.06,weatherlink.com 1.10,2013-06-07 07:14:00,
2013-06-07 03:29:00,76.4,75.0,29.82,SE,146,19.0,20.0,94,0.05,,,0.08,weatherlink.com 1.10,2013-06-07 07:29:00,
2013-06-07 03:44:00,76.1,74.0,29.81,ESE,120,9.0,19.0,94,0.05,,,0.09,weatherlink.com 1.10,2013-06-07 07:44:00,
2013-06-07 03:59:00,75.9,74.0,29.81,SW,217,10.0,21.0,94,0.13,,,0.18,weatherlink.com 1.10,2013-06-07 07:59:00,
2013-06-07 04:14:00,75.2,74.0,29.81,South,174,12.0,25.0,95,0.21,,,0.27,weatherlink.com 1.10,2013-06-07 08:14:00,
2013-06-07 04:29:00,75.1,74.0,29.81,SSW,206,13.0,25.0,95,0.38,,,0.46,weatherlink.com 1.10,2013-06-07 08:29:00,
2013-06-07 04:44:00,75.4,74.0,29.78,SE,129,15.0,26.0,96,0.50,,,0.59,weatherlink.com 1.10,2013-06-07 08:44:00,
2013-06-07 04:59:00,75.3,74.0,29.78,WSW,255,11.0,19.0,95,0.40,,,0.59,weatherlink.com 1.10,2013-06-07 08:59:00,
2013-06-07 05:14:00,75.8,74.0,29.77,SSE,150,15.0,19.0,95,0.32,,,0.60,weatherlink.com 1.10,2013-06-07 09:14:00,
2013-06-07 05:29:00,75.9,74.0,29.77,SE,131,14.0,21.0,95,0.14,,,0.60,weatherlink.com 1.10,2013-06-07 09:29:00,
2013-06-07 05:44:00,76.7,75.0,29.77,South,176,19.0,27.0,95,0.01,,,0.60,weatherlink.com 1.10,2013-06-07 09:44:00,
2013-06-07 05:59:00,76.1,74.0,29.77,SSW,207,30.0,39.0,93,0.03,,,0.62,weatherlink.com 1.10,2013-06-07 09:59:00,
2013-06-07 06:14:00,74.8,73.0,29.76,SSW,212,25.0,33.0,95,0.09,,,0.69,weatherlink.com 1.10,2013-06-07 10:14:00,
2013-06-07 06:29:00,74.8,73.0,29.77,South,186,25.0,37.0,94,0.09,,,0.69,weatherlink.com 1.10,2013-06-07 10:29:00,
2013-06-07 06:44:00,74.0,72.0,29.76,SSW,207,16.0,21.0,94,0.12,,,0.72,weatherlink.com 1.10,2013-06-07 10:44:00,
2013-06-07 06:59:00,76.4,75.0,29.76,SSW,212,21.0,29.0,94,0.10,,,0.72,weatherlink.com 1.10,2013-06-07 10:59:00,
2013-06-07 07:14:00,76.8,75.0,29.75,South,177,16.0,28.0,94,0.05,,,0.74,weatherlink.com 1.10,2013-06-07 11:14:00,
2013-06-07 07:29:00,76.9,75.0,29.75,SSW,195,19.0,25.0,94,0.05,,,0.74,weatherlink.com 1.10,2013-06-07 11:29:00,
2013-06-07 07:44:00,76.9,75.0,29.75,SSW,193,14.0,30.0,94,0.02,,,0.74,weatherlink.com 1.10,2013-06-07 11:44:00,
2013-06-07 07:59:00,77.1,75.0,29.75,South,187,20.0,29.0,94,0.01,,,0.74,weatherlink.com 1.10,2013-06-07 11:59:00,
2013-06-07 08:14:00,77.3,75.0,29.75,SW,231,25.0,29.0,93,0.00,,,0.74,weatherlink.com 1.10,2013-06-07 12:14:00,
2013-06-07 08:29:00,77.7,75.0,29.75,South,191,23.0,27.0,92,0.00,,,0.74,weatherlink.com 1.10,2013-06-07 12:29:00,
2013-06-07 08:44:00,77.9,75.0,29.75,WSW,244,24.0,28.0,91,0.00,,,0.74,weatherlink.com 1.10,2013-06-07 12:44:00,
2013-06-07 08:59:00,78.0,75.0,29.75,SW,227,23.0,27.0,91,0.00,,,0.74,weatherlink.com 1.10,2013-06-07 12:59:00,
2013-06-07 09:14:00,78.1,75.0,29.75,WSW,254,16.0,31.0,89,0.00,,,0.74,weatherlink.com 1.10,2013-06-07 13:14:00,
2013-06-07 09:29:00,78.8,75.0,29.75,WSW,240,19.0,30.0,87,0.00,,,0.74,weatherlink.com 1.10,2013-06-07 13:29:00,
2013-06-07 09:44:00,79.0,75.0,29.74,SSW,195,22.0,31.0,88,0.00,,,0.74,weatherlink.com 1.10,2013-06-07 13:44:00,
2013-06-07 10:10:00,79.4,76.0,29.73,SSW,195,24.0,31.0,88,0.00,,,0.74,weatherlink.com 1.10,2013-06-07 14:10:00,
2013-06-07 10:29:00,79.3,76.0,29.73,South,191,24.0,34.0,89,0.00,,,0.74,weatherlink.com 1.10,2013-06-07 14:29:00,
2013-06-07 10:45:00,79.8,76.0,29.73,South,170,20.0,34.0,88,0.00,,,0.74,weatherlink.com 1.10,2013-06-07 14:45:00,
2013-06-07 11:00:00,80.1,76.0,29.72,SW,224,33.0,33.0,87,0.00,,,0.74,weatherlink.com 1.10,2013-06-07 15:00:00,
2013-06-07 11:15:00,80.1,75.0,29.72,SSW,205,30.0,36.0,85,0.00,,,0.74,weatherlink.com 1.10,2013-06-07 15:15:00,
2013-06-07 11:30:00,80.0,76.0,29.72,SSE,153,20.0,31.0,86,0.00,,,0.74,weatherlink.com 1.10,2013-06-07 15:30:00,
2013-06-07 11:45:00,80.1,75.0,29.71,SSW,197,20.0,34.0,85,0.00,,,0.74,weatherlink.com 1.10,2013-06-07 15:45:00,
2013-06-07 12:00:00,79.4,75.0,29.71,SSW,202,21.0,33.0,87,0.00,,,0.74,weatherlink.com 1.10,2013-06-07 16:00:00,
2013-06-07 12:15:00,77.2,75.0,29.71,SW,217,23.0,33.0,93,0.00,,,0.74,weatherlink.com 1.10,2013-06-07 16:15:00,
2013-06-07 12:30:00,78.1,75.0,29.71,SW,217,19.0,31.0,91,0.00,,,0.74,weatherlink.com 1.10,2013-06-07 16:30:00,
2013-06-07 12:45:00,78.8,75.0,29.70,WSW,238,23.0,37.0,89,0.00,,,0.74,weatherlink.com 1.10,2013-06-07 16:45:00,
2013-06-07 13:00:00,79.3,76.0,29.69,South,182,24.0,34.0,89,0.00,,,0.74,weatherlink.com 1.10,2013-06-07 17:00:00,
2013-06-07 13:30:00,78.2,75.0,29.68,SW,217,32.0,37.0,90,0.00,,,0.74,weatherlink.com 1.10,2013-06-07 17:30:00,
2013-06-07 13:45:00,77.3,74.0,29.67,WSW,244,27.0,44.0,90,0.00,,,0.74,weatherlink.com 1.10,2013-06-07 17:45:00,
2013-06-07 14:00:00,77.7,75.0,29.66,SSW,209,38.0,40.0,91,0.00,,,0.74,weatherlink.com 1.10,2013-06-07 18:00:00,
2013-06-07 14:30:00,76.8,74.0,29.65,SSW,204,22.0,47.0,91,0.00,,,0.74,weatherlink.com 1.10,2013-06-07 18:30:00,
2013-06-07 14:45:00,77.4,74.0,29.65,SSW,203,24.0,40.0,90,0.00,,,0.74,weatherlink.com 1.10,2013-06-07 18:45:00,
2013-06-07 15:00:00,77.6,74.0,29.65,SW,236,28.0,44.0,89,0.00,,,0.74,weatherlink.com 1.10,2013-06-07 19:00:00,
2013-06-07 15:15:00,77.5,74.0,29.64,SW,232,26.0,47.0,88,0.00,,,0.74,weatherlink.com 1.10,2013-06-07 19:15:00,
2013-06-07 15:30:00,77.9,74.0,29.64,SW,219,33.0,43.0,87,0.00,,,0.74,weatherlink.com 1.10,2013-06-07 19:30:00,
2013-06-07 16:00:00,77.3,73.0,29.64,SW,215,36.0,42.0,87,0.00,,,0.74,weatherlink.com 1.10,2013-06-07 20:00:00,
2013-06-07 16:15:00,77.8,74.0,29.64,WSW,242,27.0,44.0,87,0.00,,,0.74,weatherlink.com 1.10,2013-06-07 20:15:00,
2013-06-07 16:30:00,78.2,74.0,29.64,WSW,250,27.0,39.0,86,0.00,,,0.74,weatherlink.com 1.10,2013-06-07 20:30:00,
2013-06-07 16:45:00,78.1,74.0,29.64,SSW,200,27.0,40.0,86,0.00,,,0.74,weatherlink.com 1.10,2013-06-07 20:45:00,
2013-06-07 17:00:00,77.4,73.0,29.64,WSW,244,30.0,42.0,87,0.00,,,0.74,weatherlink.com 1.10,2013-06-07 21:00:00,
2013-06-07 17:30:00,77.6,74.0,29.65,WSW,248,24.0,37.0,87,0.00,,,0.74,weatherlink.com 1.10,2013-06-07 21:30:00,
2013-06-07 17:45:00,78.0,74.0,29.66,WSW,249,22.0,33.0,86,0.00,,,0.74,weatherlink.com 1.10,2013-06-07 21:45:00,
2013-06-07 18:00:00,77.8,73.0,29.66,WSW,254,23.0,37.0,86,0.00,,,0.74,weatherlink.com 1.10,2013-06-07 22:00:00,
2013-06-07 18:15:00,77.2,73.0,29.68,SW,222,21.0,41.0,87,0.00,,,0.74,weatherlink.com 1.10,2013-06-07 22:15:00,
2013-06-07 18:45:00,77.5,73.0,29.69,SW,230,18.0,34.0,86,0.00,,,0.74,weatherlink.com 1.10,2013-06-07 22:45:00,
2013-06-07 19:00:00,77.3,73.0,29.70,SW,231,25.0,29.0,87,0.00,,,0.74,weatherlink.com 1.10,2013-06-07 23:00:00,
2013-06-07 19:15:00,77.2,73.0,29.72,SW,233,17.0,27.0,86,0.00,,,0.74,weatherlink.com 1.10,2013-06-07 23:15:00,
2013-06-07 19:30:00,77.0,73.0,29.73,WSW,237,15.0,25.0,86,0.00,,,0.74,weatherlink.com 1.10,2013-06-07 23:30:00,
2013-06-07 19:45:00,76.9,73.0,29.74,WSW,242,9.0,22.0,86,0.00,,,0.74,weatherlink.com 1.10,2013-06-07 23:45:00,
2013-06-07 20:01:00,76.8,72.0,29.75,WNW,285,10.0,27.0,85,0.00,,,0.74,weatherlink.com 1.10,2013-06-08 00:01:00,
2013-06-07 20:46:00,76.3,72.0,29.78,West,259,7.0,24.0,87,0.00,,,0.74,weatherlink.com 1.10,2013-06-08 00:46:00,
2013-06-07 21:01:00,76.3,72.0,29.79,SW,222,9.0,20.0,87,0.00,,,0.74,weatherlink.com 1.10,2013-06-08 01:01:00,
2013-06-07 21:31:00,76.6,72.0,29.81,WSW,256,8.0,20.0,85,0.00,,,0.74,weatherlink.com 1.10,2013-06-08 01:31:00,
2013-06-07 22:01:00,76.9,72.0,29.84,SW,236,10.0,17.0,84,0.00,,,0.74,weatherlink.com 1.10,2013-06-08 02:01:00,
2013-06-07 22:31:00,76.2,73.0,29.86,WSW,243,11.0,17.0,89,0.00,,,0.74,weatherlink.com 1.10,2013-06-08 02:31:00,
2013-06-07 22:46:00,76.0,73.0,29.88,WSW,243,8.0,16.0,90,0.00,,,0.74,weatherlink.com 1.10,2013-06-08 02:46:00,
2013-06-07 23:01:00,75.9,74.0,29.88,SW,231,6.0,15.0,92,0.00,,,0.74,weatherlink.com 1.10,2013-06-08 03:01:00,
2013-06-07 23:16:00,75.7,73.0,29.89,WSW,237,5.0,16.0,92,0.00,,,0.74,weatherlink.com 1.10,2013-06-08 03:16:00,
2013-06-07 23:31:00,75.7,73.0,29.89,WSW,257,5.0,17.0,92,0.00,,,0.74,weatherlink.com 1.10,2013-06-08 03:31:00,
2013-06-07 23:46:00,75.5,73.0,29.89,WSW,240,10.0,17.0,92,0.00,,,0.74,weatherlink.com 1.10,2013-06-08 03:46:00,